Robinson, IL

6:43 PM CDT on May 22, 2017 (GMT -0500)
Robinson Municipal

Weather History for KRSV - December, 2011

Change the Weather History Date:

Monday, December 5, 2011

  Actual Average (KLWV) Record (KLWV)
Temperature  
Mean Temperature 36 °F -  
Max Temperature 37 °F 45 °F 68 °F (2001)
Min Temperature 35 °F 30 °F 10 °F (1991)
Degree Days  
Heating Degree Days 29    
Moisture  
Dew Point 36 °F    
Average Humidity 97    
Maximum Humidity 100    
Minimum Humidity 93    
Precipitation  
Precipitation 0.01 in - - ()
Sea Level Pressure  
Sea Level Pressure 30.18 in    
Wind  
Wind Speed 10 mph (NNW)    
Max Wind Speed 15 mph    
Max Gust Speed 21 mph    
Visibility 5 miles    
Events Rain    
Averages and records for this station are not official NWS values.
T = Trace of Precipitation, MM = Missing Value Source: NWS Daily Summary

Daily Weather History Graph

Daily Weather History Graph

Search for Another Location

Airport or City:

Trip Planner

Search our weather history database for the weather conditions in past years. The results will help you decide how hot, cold, wet, or windy it might be!

Date:

Astronomy

Dec. 05, 2011 Rise Set
Actual Time 6:54 AM CST 4:28 PM CST
Civil Twilight 6:24 AM CST 4:57 PM CST
Nautical Twilight 5:51 AM CST 5:31 PM CST
Astronomical Twilight 5:18 AM CST 6:03 PM CST
Moon 1:24 PM CST (12/5) 2:17 AM CST (12/5)
Length of Visible Light 10h 33m
Length of Day
9h 34m
Waxing Gibbous, 80% of the Moon is Illuminated
Dec 5
Waxing Gibbous
Dec 10
Full
Dec 17
Last Quarter
Dec 24
New
Jan 1
First Quarter

Hourly Weather History & Observations

Time (CST) Temp. Windchill Dew Point Humidity Pressure Visibility Wind Dir Wind Speed Gust Speed Precip Events Conditions
12:35 AM 37.4 °F 31.4 °F 35.6 °F 93% 30.22 in 5.0 mi NNW 8.1 mph - N/A Rain Rain
12:55 AM 37.4 °F 29.8 °F 35.6 °F 93% 30.19 in 5.0 mi North 11.5 mph 16.1 mph N/A Rain Light Rain
1:15 AM 37.4 °F 30.8 °F 35.6 °F 93% 30.19 in 5.0 mi North 9.2 mph - N/A Rain Light Rain
1:35 AM 37.4 °F 30.8 °F 35.6 °F 93% 30.20 in 5.0 mi North 9.2 mph - N/A Rain Rain
1:55 AM 37.4 °F 32.1 °F 35.6 °F 93% 30.21 in 5.0 mi NNW 6.9 mph - N/A Rain Rain
2:15 AM 37.4 °F 31.4 °F 35.6 °F 93% 30.19 in 5.0 mi NNW 8.1 mph - N/A Rain Rain
2:35 AM 37.4 °F 30.3 °F 35.6 °F 93% 30.19 in 5.0 mi North 10.4 mph - N/A Rain Light Rain
2:55 AM 37.4 °F 32.1 °F 35.6 °F 93% 30.20 in 5.0 mi NNW 6.9 mph - N/A Rain Light Rain
3:15 AM 37.4 °F 30.8 °F 35.6 °F 93% 30.21 in 5.0 mi NNW 9.2 mph - N/A Rain Rain
3:35 AM 37.4 °F 30.8 °F 35.6 °F 93% 30.20 in 4.0 mi NNW 9.2 mph - N/A Rain Rain
3:55 AM 35.6 °F 28.6 °F 35.6 °F 100% 30.22 in 4.0 mi NW 9.2 mph - N/A Rain Rain
4:15 AM 35.6 °F 28.6 °F 35.6 °F 100% 30.23 in 4.0 mi NW 9.2 mph - 0.01 in Rain Rain
4:35 AM 35.6 °F 29.2 °F 35.6 °F 100% 30.23 in 4.0 mi NNW 8.1 mph - 0.01 in Rain Rain
4:55 AM 35.6 °F 28.0 °F 35.6 °F 100% 30.22 in 5.0 mi NNW 10.4 mph - N/A Rain Rain
5:15 AM 35.6 °F 28.0 °F 35.6 °F 100% 30.22 in 7.0 mi NNW 10.4 mph 16.1 mph N/A Rain Light Rain
5:35 AM 35.6 °F 28.6 °F 35.6 °F 100% 30.22 in 7.0 mi NNW 9.2 mph 16.1 mph N/A Rain Light Rain
5:55 AM 35.6 °F 29.2 °F 35.6 °F 100% 30.21 in 7.0 mi North 8.1 mph - N/A Rain Light Rain
6:15 AM 35.6 °F 28.6 °F 35.6 °F 100% 30.21 in 7.0 mi NNW 9.2 mph - N/A Rain Rain
6:35 AM 35.6 °F 28.6 °F 35.6 °F 100% 30.19 in 7.0 mi NNW 9.2 mph - N/A Rain Light Rain
6:55 AM 35.6 °F 28.0 °F 35.6 °F 100% 30.19 in 7.0 mi North 10.4 mph 16.1 mph N/A   Overcast
7:15 AM 35.6 °F 27.5 °F 35.6 °F 100% 30.19 in 7.0 mi North 11.5 mph - N/A   Overcast
7:35 AM 35.6 °F 27.5 °F 35.6 °F 100% 30.20 in 7.0 mi NNW 11.5 mph 16.1 mph N/A Rain Light Rain
7:55 AM 35.6 °F 27.5 °F 35.6 °F 100% 30.20 in 5.0 mi NNW 11.5 mph 16.1 mph N/A Rain Rain
8:15 AM 35.6 °F 27.5 °F 35.6 °F 100% 30.20 in 5.0 mi NNW 11.5 mph - N/A Rain Light Rain
8:35 AM 35.6 °F 29.2 °F 35.6 °F 100% 30.18 in 5.0 mi NNW 8.1 mph - N/A Rain Rain
8:55 AM 35.6 °F 27.1 °F 35.6 °F 100% 30.17 in 5.0 mi NNW 12.7 mph 20.7 mph N/A   Overcast
9:15 AM 35.6 °F 27.1 °F 35.6 °F 100% 30.18 in 5.0 mi NNW 12.7 mph 17.3 mph N/A   Overcast
9:35 AM 35.6 °F 28.6 °F 35.6 °F 100% 30.19 in 5.0 mi NNW 9.2 mph - N/A   Overcast
9:55 AM 35.6 °F 27.5 °F 35.6 °F 100% 30.19 in 4.0 mi NNW 11.5 mph - N/A   Overcast
10:15 AM 35.6 °F 27.5 °F 35.6 °F 100% 30.18 in 4.0 mi NNW 11.5 mph 17.3 mph N/A   Light Drizzle
10:35 AM 35.6 °F 27.5 °F 35.6 °F 100% 30.19 in 4.0 mi NNW 11.5 mph 17.3 mph N/A Rain Rain
10:55 AM 35.6 °F 27.5 °F 35.6 °F 100% 30.17 in 2.5 mi NNW 11.5 mph 17.3 mph N/A Rain Rain
11:15 AM 35.6 °F 27.1 °F 35.6 °F 100% 30.16 in 3.0 mi NNW 12.7 mph - N/A Rain Rain
11:35 AM 35.6 °F 28.0 °F 35.6 °F 100% 30.16 in 2.5 mi NNW 10.4 mph 18.4 mph N/A Rain Rain
11:55 AM 35.6 °F 28.0 °F 35.6 °F 100% 30.17 in 2.5 mi NW 10.4 mph 18.4 mph N/A Rain Rain
12:15 PM 35.6 °F 28.0 °F 35.6 °F 100% 30.15 in 2.5 mi NNW 10.4 mph - N/A Rain Rain
12:35 PM 35.6 °F 26.2 °F 35.6 °F 100% 30.14 in 3.0 mi NNW 15.0 mph 20.7 mph N/A Rain Rain
1:15 PM 37.4 °F 30.3 °F 35.6 °F 93% 30.14 in 4.0 mi NNW 10.4 mph - N/A Rain Rain
1:35 PM 37.4 °F 29.8 °F 35.6 °F 93% 30.14 in 4.0 mi NNW 11.5 mph - N/A Rain Rain
1:55 PM 37.4 °F 29.3 °F 35.6 °F 93% 30.13 in 4.0 mi NNW 12.7 mph - N/A Rain Rain
2:15 PM 37.4 °F 29.8 °F 37.4 °F 100% 30.12 in 4.0 mi NW 11.5 mph 18.4 mph N/A Rain Rain
2:35 PM 37.4 °F 29.8 °F 37.4 °F 100% 30.14 in 5.0 mi NW 11.5 mph - N/A Rain Light Rain
2:55 PM 37.4 °F 28.9 °F 37.4 °F 100% 30.14 in 5.0 mi NW 13.8 mph 19.6 mph N/A Rain Light Rain
3:15 PM 37.4 °F 28.9 °F 35.6 °F 93% 30.15 in 4.0 mi NW 13.8 mph - N/A Rain Rain
3:35 PM 37.4 °F 29.3 °F 35.6 °F 93% 30.14 in 7.0 mi NNW 12.7 mph 20.7 mph N/A Rain Light Rain
3:55 PM 37.4 °F 29.8 °F 35.6 °F 93% 30.14 in 7.0 mi NNW 11.5 mph 17.3 mph N/A Rain Light Rain
4:15 PM 37.4 °F 29.8 °F 35.6 °F 93% 30.14 in 7.0 mi NNW 11.5 mph - N/A Rain Light Rain
4:55 PM 37.4 °F 30.3 °F 35.6 °F 93% 30.16 in 7.0 mi NW 10.4 mph 18.4 mph N/A   Overcast
5:15 PM 37.4 °F 30.3 °F 35.6 °F 93% 30.19 in 7.0 mi NW 10.4 mph 16.1 mph N/A Rain Light Rain
5:35 PM 37.4 °F 29.8 °F 35.6 °F 93% 30.19 in 5.0 mi NW 11.5 mph 17.3 mph N/A Rain Rain
5:55 PM 37.4 °F 30.8 °F 35.6 °F 93% 30.19 in 5.0 mi NNW 9.2 mph 18.4 mph N/A Rain Light Rain
6:15 PM 37.4 °F 30.8 °F 35.6 °F 93% 30.18 in 7.0 mi NNW 9.2 mph 16.1 mph N/A   Light Drizzle
6:35 PM 37.4 °F 29.3 °F 35.6 °F 93% 30.17 in 7.0 mi NNW 12.7 mph 18.4 mph N/A   Overcast
6:55 PM 37.4 °F 29.8 °F 35.6 °F 93% 30.16 in 7.0 mi North 11.5 mph 17.3 mph N/A   Overcast
7:15 PM 37.4 °F 30.3 °F 35.6 °F 93% 30.18 in 7.0 mi North 10.4 mph - N/A   Overcast
7:35 PM 37.4 °F 32.1 °F 35.6 °F 93% 30.19 in 7.0 mi North 6.9 mph - N/A   Overcast
7:55 PM 37.4 °F 31.4 °F 35.6 °F 93% 30.19 in 7.0 mi NNW 8.1 mph - N/A   Overcast
8:15 PM 37.4 °F 31.4 °F 35.6 °F 93% 30.18 in 7.0 mi NNW 8.1 mph - N/A   Overcast
8:35 PM 37.4 °F 32.8 °F 35.6 °F 93% 30.18 in 7.0 mi NW 5.8 mph - N/A   Overcast
8:55 PM 37.4 °F 30.8 °F 35.6 °F 93% 30.18 in 7.0 mi NW 9.2 mph - N/A   Overcast
9:15 PM 37.4 °F 31.4 °F 35.6 °F 93% 30.19 in 10.0 mi NNW 8.1 mph - N/A   Overcast
9:35 PM 37.4 °F 31.4 °F 37.4 °F 100% 30.18 in 7.0 mi NNW 8.1 mph - N/A   Overcast
9:55 PM 39.2 °F 33.0 °F 37.4 °F 93% 30.18 in 10.0 mi NNW 9.2 mph - N/A   Overcast
10:15 PM 37.4 °F 31.4 °F 37.4 °F 100% 30.19 in 10.0 mi NNW 8.1 mph - N/A   Overcast
10:35 PM 39.2 °F 34.2 °F 37.4 °F 93% 30.19 in 10.0 mi NNW 6.9 mph - N/A   Overcast
10:55 PM 39.2 °F 32.5 °F 37.4 °F 93% 30.19 in 10.0 mi North 10.4 mph - N/A   Overcast
11:15 PM 37.4 °F 29.3 °F 35.6 °F 93% 30.19 in 10.0 mi North 12.7 mph - N/A   Overcast
11:35 PM 37.4 °F 29.3 °F 35.6 °F 93% 30.19 in 10.0 mi North 12.7 mph - N/A   Overcast
11:55 PM 37.4 °F 30.3 °F 35.6 °F 93% 30.19 in 10.0 mi North 10.4 mph - N/A   Overcast